星链-4365 (STARLINK-4365 )

导读 | 豆包AI

STARLINK-4365是美国太空探索技术公司发射的星链(Starlink)卫星,于2022年7月22日升空,属于星链星座组网卫星,主要服务全球卫星互联网覆盖,为偏远地区提供高速宽带服务,依托低轨部署降低传输延迟,是星链大规模星座建设中的组成单元,助力推进全球互联网络布局。

基本信息
目录编号:
53228
目录名称:
STARLINK-4365
国际标识:
2022-084AR
轨道中心:
EARTH
卫星名称:
星链-4365
卫星全名:
星链-4365 (STARLINK-4365 )
卫星状态:
在轨 (已飞行1378 天)
发射日期:
2022-07-22 UTC
国别 :
美国 (US)
星等 :
--
轨道信息
数据来源 国际轨道数据 AOE轨道数据
星历时间 2026-04-30T10:43:51+0800
16小时前
查看轨道信息
2026-04-29T21:00:00+0800
1天前
查看轨道信息
半长轴 6927.625km 6927.636km
偏心率 0.0001158 0.0001308
轨道倾角 97.556° 97.558°
近地点辐角 106.455° 116.617°
升交点赤经 180.827° 180.268°
平近点角 253.680° 24.380°
近地点 548.685km 548.592km
远地点 550.291km 550.406km
周期 95.639分钟 95.639分钟
每日圈数 15.056577 15.056541
详细信息
固有亮度:
5
最大亮度:
2.5
卫星平台:
Starlink v1.5
覆盖范围:
全球
运营商:
太空探索技术公司
运营商所在国:
美国
制造商(研发单位):
太空探索技术公司
制造商所在国:
美国
使用方式:
暂无
卫星简介
星链(Starlink)计划是由太空探索技术公司(SpaceX)提出的一个巨型低轨卫星互联网星座项目,计划在2019年至2024年间在太空搭建由约1.2万颗卫星组成的“星链”网络,其中1584颗将部署在地球上空550千米处的近地轨道,并从2020年开始工作。该卫星仍在工作。
2D轨道图
3D轨道图
轨道高度分析图
轨道倾角分析图
轨道综合分析图
查看轨道综合分析图